Regional Weather Roundup
Issued by NWS Cleveland, OH

Home | Current Version | Previous Version | Text Only | Print | Product List | Glossary Off
Versions: 1 2 3 4 5 6 7 8 9 10 11 12 13 14 15 16 17 18 19 20 21 22 23 24 25 26 27 28 29 30 31 32 33 34 35 36 37 38 39 40 41 42 43 44 45 46 47 48 49 50

000
ASUS41 KCLE 272102
RWRCLE
OHIO REGIONAL WEATHER ROUNDUP
NATIONAL WEATHER SERVICE CLEVELAND, OH
400 PM EST THU NOV 27 2014

NOTE: "FAIR" INDICATES FEW OR NO CLOUDS BELOW 12,000 FEET WITH NO
SIGNIFICANT WEATHER AND/OR OBSTRUCTIONS TO VISIBILITY.

OHZ001>008-015>018-024>027-034-035-043-044-272200-
   NORTHWEST OHIO

CITY           SKY/WX    TMP DP  RH WIND       PRES   REMARKS
DEFIANCE       FLURRIES  33  26  75 W9        30.22R WCI  25
FINDLAY        CLOUDY    34  25  69 W14       30.20S WCI  25
TOLEDO EXPRESS CLOUDY    33  24  69 W15       30.19R WCI  23
TOLEDO EXEC    CLOUDY    34  23  64 W12       30.20S WCI  25
LIMA           LGT SNOW  32  27  81 W15       30.22R WCI  22
$$

OHZ009>014-019>023-028>033-038-089-272200-
   NORTHEAST OHIO

CITY           SKY/WX    TMP DP  RH WIND       PRES   REMARKS
CLE-HOPKINS    LGT SNOW  31  24  75 W10       30.19R WCI  22
CLE-LAKEFRONT  FLURRIES  33  26  75 W20       30.16R WCI  21
CUY CO. ARPT   SNOWSHWR  34  27  75 NW15G24   30.15R WCI  24
LORAIN-ELYRIA  FLURRIES  31  24  75 W9        30.18R WCI  23
ASHTABULA      LGT SNOW  30  24  78 W14       30.12R WCI  19
AKRON-CANTON   CLOUDY    32  21  64 NW17G24   30.14R WCI  21
WOOSTER        FLURRIES  31  22  69 NW15      30.17R WCI  20
MANSFIELD      CLOUDY    30  22  72 W10       30.17R WCI  21
YOUNGSTOWN     FLURRIES  30  21  69 W8        30.11R WCI  22
$$

OHZ042-051>053-060>062-070>072-077>081-272200-
  SOUTHWEST OHIO

CITY           SKY/WX    TMP DP  RH WIND       PRES   REMARKS
CINC-COVINGTON CLOUDY    32  22  66 W15       30.30R WCI  22
CINC-LUNKEN    CLOUDY    32  24  72 W12       30.33R WCI  23
HAMILTON       CLOUDY    33  24  69 W9G16     30.32R WCI  25
DAYTON         CLOUDY    32  25  75 NW16      30.27R WCI  21
WRIGHT-PAT AFB FLURRIES  31  27  83 W10       30.26R WCI  23
DAYTON GENERAL CLOUDY    32  25  75 W7        30.26R WCI  26
WILMINGTON     LGT SNOW  30  23  75 W15       30.26R WCI  19
$$

OHZ036-037-039>041-045>050-054>059-063>069-073>076-082>088-272200-
  CENTRAL AND SOUTHEAST OHIO

CITY           SKY/WX    TMP DP  RH WIND       PRES   REMARKS
COLUMBUS       CLOUDY    33  20  58 W15       30.22R WCI  23
OSU AIRPORT    CLOUDY    33  22  63 W15       30.22R WCI  23
BOLTON FIELD   CLOUDY    32  21  64 W10G18    30.23R WCI  24
RICKENBACK AFB NOT AVBL
NEWARK         CLOUDY    33  20  58 W8        30.20R WCI  26
MARION         CLOUDY    32  22  66 W14G21    30.21R WCI  22
LANCASTER      CLOUDY    33  21  61 W8G16     30.23R WCI  26
ZANESVILLE     CLOUDY    31  21  66 W9        30.20R WCI  23
NEW PHILLY     CLOUDY    33  22  63 W9        30.18R WCI  25
$$



USA.gov is the U.S. government's official web portal to all federal, state and local government web resources and services.